| time (UTC) | temp C | wind direction | speed KPH | gust KPH | rain 1hr cm | rain 24hr cm | rain mn cm | humidity % | barometer mb |
| 20260507181209 | 7 | 255 | 0.0 | 0.0 | 0.00 | 0.00 | 0.00 | 84 | 1024.7 |
| 20260507181203 | 7 | 31 | 1.6 | 4.8 | 0.03 | 1.68 | 1.65 | 94 | 1015.2 |
| 20260507180704 | 7 | 313 | 1.6 | 4.8 | 0.03 | 1.68 | 1.65 | 94 | 1015.1 |
| 20260507180209 | 7 | 255 | 0.0 | 0.0 | 0.00 | 0.00 | 0.00 | 84 | 1024.7 |
| 20260507180203 | 7 | 310 | 1.6 | 8.0 | 0.03 | 1.68 | 1.65 | 94 | 1015.1 |
| 20260507175704 | 7 | 34 | 1.6 | 4.8 | 0.03 | 1.68 | 1.65 | 94 | 1015.1 |
| 20260507175209 | 7 | 255 | 0.0 | 0.0 | 0.00 | 0.00 | 0.00 | 84 | 1024.7 |
| 20260507175204 | 7 | 34 | 1.6 | 3.2 | 0.05 | 1.68 | 1.65 | 94 | 1015.2 |
| 20260507174704 | 7 | 26 | 1.6 | 8.0 | 0.03 | 1.65 | 1.63 | 93 | 1015.1 |
| 20260507174209 | 7 | 255 | 0.0 | 0.0 | 0.00 | 0.00 | 0.00 | 84 | 1024.7 |
| 20260507174204 | 7 | 327 | 3.2 | 9.7 | 0.03 | 1.65 | 1.63 | 93 | 1015.0 |
| 20260507173704 | 7 | 15 | 3.2 | 9.7 | 0.03 | 1.65 | 1.63 | 94 | 1014.9 |
| 20260507172209 | 7 | 255 | 0.0 | 0.0 | 0.00 | 0.00 | 0.00 | 84 | 1024.7 |
| 20260507172204 | 8 | 32 | 4.8 | 11.3 | 0.03 | 1.65 | 1.63 | 94 | 1014.7 |
| 20260507171704 | 8 | 298 | 3.2 | 8.0 | 0.03 | 1.65 | 1.63 | 94 | 1014.7 |
| 20260507171209 | 7 | 255 | 0.0 | 0.0 | 0.00 | 0.00 | 0.00 | 84 | 1024.7 |
| 20260507171203 | 8 | 343 | 4.8 | 8.0 | 0.03 | 1.65 | 1.63 | 93 | 1014.6 |
| 20260507170703 | 8 | 34 | 3.2 | 11.3 | 0.03 | 1.65 | 1.63 | 93 | 1014.5 |
| 20260507170209 | 7 | 255 | 0.0 | 0.0 | 0.00 | 0.00 | 0.00 | 84 | 1024.7 |
| 20260507170203 | 8 | 42 | 1.6 | 8.0 | 0.03 | 1.65 | 1.63 | 93 | 1014.5 |
| 20260507165703 | 8 | 42 | 1.6 | 8.0 | 0.03 | 1.65 | 1.63 | 93 | 1014.6 |
| 20260507164214 | 7 | 255 | 0.0 | 0.0 | 0.00 | 0.00 | 0.00 | 84 | 1024.7 |
| 20260507164206 | 8 | 11 | 1.6 | 4.8 | 0.00 | 1.70 | 1.60 | 94 | 1014.4 |
| 20260507163214 | 7 | 255 | 0.0 | 0.0 | 0.00 | 0.00 | 0.00 | 84 | 1024.7 |
| 20260507163205 | 8 | 345 | 1.6 | 11.3 | 0.03 | 1.70 | 1.60 | 93 | 1014.3 |
| 20260507162706 | 8 | 4 | 8.0 | 12.9 | 0.03 | 1.73 | 1.60 | 93 | 1014.3 |
| 20260507162214 | 7 | 255 | 0.0 | 0.0 | 0.00 | 0.00 | 0.00 | 84 | 1024.7 |
| 20260507162205 | 8 | 327 | 4.8 | 12.9 | 0.03 | 1.75 | 1.60 | 93 | 1014.2 |
| 20260507161214 | 7 | 255 | 0.0 | 0.0 | 0.00 | 0.00 | 0.00 | 84 | 1024.7 |
| 20260507161205 | 8 | 327 | 3.2 | 8.0 | 0.03 | 1.78 | 1.60 | 93 | 1014.3 |
| 20260507160706 | 8 | 1 | 3.2 | 8.0 | 0.05 | 1.80 | 1.60 | 93 | 1014.3 |
| 20260507160214 | 7 | 255 | 0.0 | 0.0 | 0.00 | 0.00 | 0.00 | 84 | 1024.7 |
| 20260507160205 | 8 | 344 | 4.8 | 8.0 | 0.05 | 1.80 | 1.60 | 93 | 1014.2 |
| 20260507155706 | 8 | 303 | 3.2 | 8.0 | 0.05 | 1.80 | 1.60 | 93 | 1014.3 |
| 20260507155214 | 7 | 255 | 0.0 | 0.0 | 0.00 | 0.00 | 0.00 | 84 | 1024.7 |
| 20260507155206 | 8 | 302 | 3.2 | 8.0 | 0.05 | 1.80 | 1.60 | 93 | 1014.2 |
| 20260507154706 | 8 | 41 | 1.6 | 4.8 | 0.05 | 1.80 | 1.60 | 94 | 1014.2 |
| 20260507154214 | 7 | 255 | 0.0 | 0.0 | 0.00 | 0.00 | 0.00 | 84 | 1024.7 |
| 20260507154205 | 8 | 41 | 1.6 | 4.8 | 0.05 | 1.80 | 1.60 | 93 | 1014.2 |
| 20260507153705 | 8 | 41 | 1.6 | 4.8 | 0.05 | 1.78 | 1.57 | 94 | 1014.1 |
| 20260507153214 | 7 | 255 | 0.0 | 0.0 | 0.00 | 0.00 | 0.00 | 84 | 1024.7 |
| 20260507153206 | 8 | 47 | 1.6 | 8.0 | 0.05 | 1.78 | 1.57 | 94 | 1014.0 |
| 20260507152705 | 8 | 14 | 4.8 | 11.3 | 0.05 | 1.78 | 1.57 | 94 | 1013.9 |
| 20260507151705 | 8 | 29 | 3.2 | 9.7 | 0.05 | 1.78 | 1.57 | 94 | 1013.8 |
| 20260507150705 | 8 | 356 | 3.2 | 11.3 | 0.08 | 1.78 | 1.55 | 94 | 1013.7 |
| 20260507145705 | 8 | 33 | 4.8 | 11.3 | 0.08 | 1.78 | 1.55 | 93 | 1013.6 |
| 20260507145213 | 7 | 255 | 0.0 | 0.0 | 0.00 | 0.00 | 0.00 | 84 | 1024.7 |
| 20260507145205 | 8 | 24 | 4.8 | 11.3 | 0.10 | 1.78 | 1.55 | 94 | 1013.4 |
| 20260507144706 | 8 | 340 | 8.0 | 11.3 | 0.08 | 1.75 | 1.55 | 93 | 1013.4 |
| 20260507144213 | 7 | 255 | 0.0 | 0.0 | 0.00 | 0.00 | 0.00 | 84 | 1024.7 |
| 20260507144206 | 8 | 358 | 3.2 | 11.3 | 0.10 | 1.75 | 1.55 | 93 | 1013.4 |
| 20260507143705 | 8 | 338 | 3.2 | 9.7 | 0.10 | 1.75 | 1.55 | 93 | 1013.4 |
| 20260507143214 | 7 | 255 | 0.0 | 0.0 | 0.00 | 0.00 | 0.00 | 84 | 1024.7 |
| 20260507143205 | 8 | 9 | 3.2 | 9.7 | 0.08 | 1.75 | 1.52 | 93 | 1013.3 |
| 20260507142705 | 8 | 16 | 3.2 | 11.3 | 0.08 | 1.75 | 1.52 | 93 | 1013.3 |
| 20260507142214 | 7 | 255 | 0.0 | 0.0 | 0.00 | 0.00 | 0.00 | 84 | 1024.7 |
| 20260507142206 | 8 | 25 | 3.2 | 8.0 | 0.10 | 1.75 | 1.52 | 97 | 1013.3 |
| 20260507141705 | 8 | 25 | 3.2 | 8.0 | 0.15 | 1.75 | 1.52 | 93 | 1013.3 |
| 20260507141214 | 7 | 255 | 0.0 | 0.0 | 0.00 | 0.00 | 0.00 | 84 | 1024.7 |
| 20260507141206 | 8 | 16 | 4.8 | 9.7 | 0.15 | 1.73 | 1.50 | 95 | 1013.2 |
| 20260507140705 | 8 | 347 | 1.6 | 4.8 | 0.18 | 1.70 | 1.47 | 93 | 1013.2 |
| 20260507140213 | 7 | 255 | 0.0 | 0.0 | 0.00 | 0.00 | 0.00 | 84 | 1024.7 |
| 20260507140205 | 8 | 40 | 1.6 | 4.8 | 0.18 | 1.70 | 1.47 | 93 | 1013.2 |
| 20260507135214 | 7 | 255 | 0.0 | 0.0 | 0.00 | 0.00 | 0.00 | 84 | 1024.7 |
| 20260507135205 | 8 | 27 | 1.6 | 11.3 | 0.15 | 1.68 | 1.45 | 93 | 1013.2 |
| 20260507134705 | 8 | 15 | 4.8 | 9.7 | 0.15 | 1.68 | 1.45 | 93 | 1013.1 |
| 20260507134213 | 7 | 255 | 0.0 | 0.0 | 0.00 | 0.00 | 0.00 | 84 | 1024.7 |
| 20260507134206 | 9 | 263 | 3.2 | 8.0 | 0.15 | 1.65 | 1.45 | 93 | 1013.1 |
| 20260507133705 | 9 | 64 | 0.0 | 3.2 | 0.15 | 1.65 | 1.45 | 93 | 1013.0 |
| 20260507132705 | 9 | 67 | 1.6 | 4.8 | 0.15 | 1.65 | 1.45 | 93 | 1012.9 |
| 20260507132213 | 7 | 255 | 0.0 | 0.0 | 0.00 | 0.00 | 0.00 | 84 | 1024.7 |
| 20260507132206 | 9 | 45 | 1.6 | 4.8 | 0.13 | 1.65 | 1.42 | 93 | 1012.8 |
| 20260507131706 | 8 | 45 | 3.2 | 8.0 | 0.08 | 1.60 | 1.37 | 93 | 1012.8 |
| 20260507131213 | 7 | 255 | 0.0 | 0.0 | 0.00 | 0.00 | 0.00 | 84 | 1024.7 |
| 20260507131206 | 8 | 45 | 1.6 | 4.8 | 0.05 | 1.55 | 1.35 | 93 | 1012.9 |
| 20260507130706 | 9 | 33 | 1.6 | 8.0 | 0.00 | 1.52 | 1.30 | 93 | 1012.7 |
| 20260507130213 | 7 | 255 | 0.0 | 0.0 | 0.00 | 0.00 | 0.00 | 84 | 1024.7 |
| 20260507130205 | 9 | 48 | 3.2 | 4.8 | 0.00 | 1.52 | 1.30 | 93 | 1012.8 |
| 20260507125705 | 9 | 14 | 1.6 | 8.0 | 0.00 | 1.52 | 1.30 | 93 | 1012.7 |
| 20260507125213 | 7 | 255 | 0.0 | 0.0 | 0.00 | 0.00 | 0.00 | 84 | 1024.7 |
| 20260507125205 | 9 | 338 | 1.6 | 8.0 | 0.00 | 1.52 | 1.30 | 93 | 1012.7 |
| 20260507124705 | 9 | 51 | 1.6 | 4.8 | 0.00 | 1.52 | 1.30 | 93 | 1012.6 |
| 20260507123705 | 9 | 56 | 1.6 | 4.8 | 0.00 | 1.52 | 1.30 | 94 | 1012.5 |
| 20260507123213 | 7 | 255 | 0.0 | 0.0 | 0.00 | 0.00 | 0.00 | 84 | 1024.7 |
| 20260507123205 | 9 | 105 | 0.0 | 3.2 | 0.03 | 1.52 | 1.30 | 94 | 1012.5 |
| 20260507122706 | 9 | 105 | 1.6 | 9.7 | 0.03 | 1.52 | 1.30 | 94 | 1012.4 |
| 20260507122213 | 7 | 255 | 0.0 | 0.0 | 0.00 | 0.00 | 0.00 | 84 | 1024.7 |
| 20260507122205 | 9 | 88 | 0.0 | 4.8 | 0.05 | 1.52 | 1.30 | 94 | 1012.4 |
| 20260507121705 | 9 | 37 | 0.0 | 8.0 | 0.05 | 1.52 | 1.30 | 94 | 1012.4 |
| 20260507121213 | 7 | 255 | 0.0 | 0.0 | 0.00 | 0.00 | 0.00 | 84 | 1024.7 |
| 20260507121205 | 9 | 74 | 0.0 | 4.8 | 0.10 | 1.52 | 1.30 | 94 | 1012.4 |
| 20260507120705 | 9 | 32 | 0.0 | 4.8 | 0.13 | 1.52 | 1.30 | 94 | 1012.3 |
| 20260507120213 | 7 | 255 | 0.0 | 0.0 | 0.00 | 0.00 | 0.00 | 84 | 1024.7 |
| 20260507120205 | 9 | 20 | 4.8 | 9.7 | 0.15 | 1.52 | 1.30 | 94 | 1012.3 |
| 20260507115706 | 9 | 22 | 3.2 | 8.0 | 0.15 | 1.52 | 1.30 | 94 | 1012.3 |
| 20260507115213 | 7 | 255 | 0.0 | 0.0 | 0.00 | 0.00 | 0.00 | 84 | 1024.7 |
| 20260507115205 | 9 | 90 | 0.0 | 8.0 | 0.15 | 1.52 | 1.30 | 94 | 1012.3 |
| 20260507114213 | 7 | 255 | 0.0 | 0.0 | 0.00 | 0.00 | 0.00 | 84 | 1024.7 |
| 20260507114206 | 8 | 306 | 1.6 | 9.7 | 0.15 | 1.52 | 1.30 | 94 | 1012.2 |
| 20260507113705 | 8 | 344 | 3.2 | 9.7 | 0.15 | 1.52 | 1.30 | 94 | 1012.2 |
| 20260507112705 | 8 | 46 | 3.2 | 9.7 | 0.13 | 1.50 | 1.27 | 94 | 1012.0 |
| 20260507112213 | 7 | 255 | 0.0 | 0.0 | 0.00 | 0.00 | 0.00 | 84 | 1024.7 |
| 20260507112205 | 8 | 344 | 3.2 | 9.7 | 0.10 | 1.47 | 1.27 | 94 | 1012.1 |
| 20260507111705 | 8 | 29 | 4.8 | 9.7 | 0.08 | 1.45 | 1.24 | 94 | 1012.1 |
| 20260507111213 | 7 | 255 | 0.0 | 0.0 | 0.00 | 0.00 | 0.00 | 84 | 1024.7 |
| 20260507111205 | 9 | 18 | 3.2 | 8.0 | 0.05 | 1.42 | 1.19 | 94 | 1012.0 |
| 20260507110706 | 9 | 120 | 1.6 | 9.7 | 0.03 | 1.40 | 1.17 | 94 | 1011.9 |
| 20260507110213 | 7 | 255 | 0.0 | 0.0 | 0.00 | 0.00 | 0.00 | 84 | 1024.7 |
| 20260507110205 | 9 | 81 | 0.0 | 4.8 | 0.00 | 1.37 | 1.17 | 94 | 1011.8 |
| 20260507105705 | 8 | 88 | 1.6 | 4.8 | 0.00 | 1.37 | 1.17 | 94 | 1011.9 |
| 20260507105213 | 7 | 255 | 0.0 | 0.0 | 0.00 | 0.00 | 0.00 | 84 | 1024.7 |
| 20260507105205 | 8 | 60 | 1.6 | 4.8 | 0.00 | 1.37 | 1.17 | 94 | 1011.9 |
| 20260507104705 | 8 | 55 | 1.6 | 4.8 | 0.00 | 1.37 | 1.17 | 94 | 1011.8 |
| 20260507104213 | 7 | 255 | 0.0 | 0.0 | 0.00 | 0.00 | 0.00 | 84 | 1024.7 |
| 20260507104205 | 8 | 335 | 3.2 | 8.0 | 0.00 | 1.37 | 1.17 | 94 | 1011.7 |
| 20260507103704 | 8 | 40 | 1.6 | 8.0 | 0.00 | 1.37 | 1.17 | 94 | 1011.8 |
| 20260507103213 | 7 | 255 | 0.0 | 0.0 | 0.00 | 0.00 | 0.00 | 84 | 1024.7 |
| 20260507103205 | 8 | 343 | 3.2 | 8.0 | 0.00 | 1.37 | 1.17 | 94 | 1011.7 |
| 20260507102705 | 8 | 45 | 4.8 | 9.7 | 0.00 | 1.37 | 1.17 | 94 | 1011.7 |
| 20260507101705 | 8 | 329 | 1.6 | 8.0 | 0.00 | 1.37 | 1.17 | 94 | 1011.6 |
| 20260507101213 | 7 | 255 | 0.0 | 0.0 | 0.00 | 0.00 | 0.00 | 84 | 1024.7 |
| 20260507101205 | 8 | 28 | 3.2 | 11.3 | 0.00 | 1.37 | 1.17 | 94 | 1011.6 |
| 20260507100705 | 8 | 35 | 1.6 | 8.0 | 0.00 | 1.37 | 1.17 | 94 | 1011.5 |
| 20260507095213 | 7 | 255 | 0.0 | 0.0 | 0.00 | 0.00 | 0.00 | 84 | 1024.7 |
| 20260507095205 | 8 | 29 | 4.8 | 9.7 | 0.00 | 1.37 | 1.17 | 94 | 1011.4 |
| 20260507094705 | 8 | 6 | 4.8 | 8.0 | 0.03 | 1.37 | 1.17 | 94 | 1011.4 |
| 20260507094213 | 7 | 255 | 0.0 | 0.0 | 0.00 | 0.00 | 0.00 | 84 | 1024.7 |
| 20260507094205 | 8 | 13 | 4.8 | 9.7 | 0.03 | 1.37 | 1.17 | 94 | 1011.4 |
| 20260507093705 | 8 | 55 | 1.6 | 9.7 | 0.03 | 1.37 | 1.17 | 94 | 1011.3 |
| 20260507093213 | 7 | 255 | 0.0 | 0.0 | 0.00 | 0.00 | 0.00 | 84 | 1024.7 |
| 20260507093205 | 8 | 26 | 4.8 | 9.7 | 0.03 | 1.37 | 1.17 | 94 | 1011.2 |
| 20260507092705 | 8 | 25 | 3.2 | 9.7 | 0.03 | 1.37 | 1.17 | 94 | 1011.1 |
| 20260507092212 | 7 | 255 | 0.0 | 0.0 | 0.00 | 0.00 | 0.00 | 84 | 1024.7 |
| 20260507092205 | 8 | 350 | 4.8 | 9.7 | 0.03 | 1.37 | 1.17 | 94 | 1011.0 |
| 20260507091213 | 7 | 255 | 0.0 | 0.0 | 0.00 | 0.00 | 0.00 | 84 | 1024.7 |
| 20260507091205 | 8 | 316 | 3.2 | 8.0 | 0.05 | 1.37 | 1.17 | 94 | 1011.0 |
| 20260507090705 | 8 | 62 | 1.6 | 8.0 | 0.05 | 1.37 | 1.17 | 94 | 1010.9 |
| 20260507090213 | 7 | 255 | 0.0 | 0.0 | 0.00 | 0.00 | 0.00 | 84 | 1024.7 |
| 20260507090206 | 8 | 351 | 3.2 | 9.7 | 0.05 | 1.37 | 1.17 | 94 | 1010.8 |
| 20260507085705 | 8 | 36 | 3.2 | 9.7 | 0.05 | 1.37 | 1.17 | 94 | 1010.8 |
| 20260507085212 | 7 | 255 | 0.0 | 0.0 | 0.00 | 0.00 | 0.00 | 84 | 1024.7 |
| 20260507085204 | 8 | 12 | 3.2 | 11.3 | 0.05 | 1.37 | 1.17 | 94 | 1010.7 |
| 20260507084705 | 8 | 310 | 1.6 | 4.8 | 0.03 | 1.37 | 1.14 | 94 | 1010.7 |
| 20260507083704 | 8 | 10 | 3.2 | 9.7 | 0.03 | 1.37 | 1.14 | 94 | 1010.5 |
| 20260507083212 | 7 | 255 | 0.0 | 0.0 | 0.00 | 0.00 | 0.00 | 84 | 1024.7 |
| 20260507083205 | 8 | 25 | 3.2 | 9.7 | 0.03 | 1.37 | 1.14 | 94 | 1010.4 |
| 20260507082212 | 7 | 255 | 0.0 | 0.0 | 0.00 | 0.00 | 0.00 | 84 | 1024.7 |
| 20260507082204 | 8 | 44 | 1.6 | 4.8 | 0.03 | 1.37 | 1.14 | 94 | 1010.4 |
| 20260507081705 | 8 | 46 | 1.6 | 4.8 | 0.03 | 1.37 | 1.14 | 94 | 1010.3 |
| 20260507081212 | 7 | 255 | 0.0 | 0.0 | 0.00 | 0.00 | 0.00 | 84 | 1024.7 |
| 20260507081205 | 8 | 53 | 1.6 | 4.8 | 0.00 | 1.35 | 1.12 | 94 | 1010.3 |
| 20260507080706 | 8 | 28 | 3.2 | 8.0 | 0.00 | 1.35 | 1.12 | 94 | 1010.3 |
| 20260507080212 | 7 | 255 | 0.0 | 0.0 | 0.00 | 0.00 | 0.00 | 84 | 1024.7 |
| 20260507080205 | 8 | 15 | 1.6 | 4.8 | 0.00 | 1.35 | 1.12 | 94 | 1010.3 |
| 20260507075706 | 8 | 38 | 1.6 | 8.0 | 0.00 | 1.35 | 1.12 | 94 | 1010.3 |
| 20260507075212 | 7 | 255 | 0.0 | 0.0 | 0.00 | 0.00 | 0.00 | 84 | 1024.7 |
| 20260507075205 | 8 | 25 | 3.2 | 8.0 | 0.00 | 1.35 | 1.12 | 94 | 1010.2 |
| 20260507074212 | 7 | 255 | 0.0 | 0.0 | 0.00 | 0.00 | 0.00 | 84 | 1024.7 |
| 20260507074205 | 8 | 15 | 3.2 | 8.0 | 0.00 | 1.35 | 1.12 | 94 | 1010.0 |
| 20260507073705 | 8 | 27 | 1.6 | 4.8 | 0.00 | 1.35 | 1.12 | 94 | 1010.0 |
| 20260507073213 | 7 | 255 | 0.0 | 0.0 | 0.00 | 0.00 | 0.00 | 84 | 1024.7 |
| 20260507073205 | 8 | 349 | 1.6 | 4.8 | 0.00 | 1.35 | 1.12 | 94 | 1009.9 |
| 20260507072705 | 8 | 317 | 3.2 | 8.0 | 0.00 | 1.35 | 1.12 | 94 | 1009.8 |
| 20260507072212 | 7 | 255 | 0.0 | 0.0 | 0.00 | 0.00 | 0.00 | 84 | 1024.7 |
| 20260507072205 | 8 | 40 | 1.6 | 4.8 | 0.00 | 1.35 | 1.12 | 94 | 1009.8 |
| 20260507071705 | 8 | 35 | 1.6 | 4.8 | 0.00 | 1.35 | 1.12 | 94 | 1009.8 |
| 20260507071212 | 7 | 255 | 0.0 | 0.0 | 0.00 | 0.00 | 0.00 | 84 | 1024.7 |
| 20260507071205 | 8 | 37 | 0.0 | 4.8 | 0.00 | 1.35 | 1.12 | 94 | 1009.8 |
| 20260507070705 | 8 | 37 | 1.6 | 4.8 | 0.00 | 1.35 | 1.12 | 94 | 1009.8 |
| 20260507065212 | 7 | 255 | 0.0 | 0.0 | 0.00 | 0.00 | 0.00 | 84 | 1024.7 |
| 20260507065204 | 8 | 37 | 1.6 | 4.8 | 0.00 | 1.35 | 1.12 | 94 | 1009.7 |
| 20260507064705 | 8 | 39 | 0.0 | 4.8 | 0.00 | 1.35 | 1.12 | 94 | 1009.6 |
| 20260507064212 | 7 | 255 | 0.0 | 0.0 | 0.00 | 0.00 | 0.00 | 84 | 1024.7 |
| 20260507064205 | 8 | 59 | 0.0 | 4.8 | 0.00 | 1.35 | 1.12 | 94 | 1009.5 |
| 20260507063705 | 8 | 26 | 1.6 | 8.0 | 0.00 | 1.35 | 1.12 | 94 | 1009.5 |
| 20260507063212 | 7 | 255 | 0.0 | 0.0 | 0.00 | 0.00 | 0.00 | 84 | 1024.7 |
| 20260507063205 | 8 | 37 | 1.6 | 4.8 | 0.00 | 1.35 | 1.12 | 94 | 1009.5 |
| 20260507062704 | 8 | 9 | 1.6 | 8.0 | 0.00 | 1.35 | 1.12 | 94 | 1009.4 |
| 20260507062212 | 7 | 255 | 0.0 | 0.0 | 0.00 | 0.00 | 0.00 | 84 | 1024.7 |
| 20260507062204 | 8 | 25 | 3.2 | 8.0 | 0.00 | 1.35 | 1.12 | 94 | 1009.4 |
| 20260507061212 | 7 | 255 | 0.0 | 0.0 | 0.00 | 0.00 | 0.00 | 84 | 1024.7 |
| 20260507061205 | 8 | 49 | 1.6 | 4.8 | 0.00 | 1.35 | 1.12 | 93 | 1009.1 |
| 20260507060705 | 8 | 49 | 3.2 | 8.0 | 0.00 | 1.35 | 1.12 | 93 | 1009.0 |
| 20260507055705 | 8 | 51 | 1.6 | 4.8 | 0.00 | 1.35 | 1.12 | 94 | 1008.9 |
| 20260507055212 | 7 | 255 | 0.0 | 0.0 | 0.00 | 0.00 | 0.00 | 84 | 1024.7 |
| 20260507055205 | 8 | 50 | 3.2 | 4.8 | 0.00 | 1.35 | 1.12 | 94 | 1008.9 |
| 20260507054212 | 7 | 255 | 0.0 | 0.0 | 0.00 | 0.00 | 0.00 | 84 | 1024.7 |
| 20260507054205 | 8 | 343 | 1.6 | 4.8 | 0.00 | 1.35 | 1.12 | 93 | 1008.9 |
| 20260507053705 | 8 | 22 | 3.2 | 11.3 | 0.00 | 1.35 | 1.12 | 93 | 1008.8 |
| 20260507053212 | 7 | 255 | 0.0 | 0.0 | 0.00 | 0.00 | 0.00 | 84 | 1024.7 |
| 20260507053205 | 8 | 100 | 1.6 | 8.0 | 0.00 | 1.35 | 1.12 | 93 | 1008.8 |
| 20260507052705 | 8 | 83 | 1.6 | 11.3 | 0.00 | 1.35 | 1.12 | 93 | 1008.6 |
| 20260507051705 | 8 | 23 | 3.2 | 8.0 | 0.03 | 1.37 | 1.12 | 94 | 1008.5 |
| 20260507051212 | 7 | 255 | 0.0 | 0.0 | 0.00 | 0.00 | 0.00 | 84 | 1024.7 |
| 20260507051204 | 8 | 32 | 1.6 | 4.8 | 0.03 | 1.37 | 1.12 | 94 | 1008.4 |
| 20260507050705 | 8 | 14 | 1.6 | 8.0 | 0.05 | 1.37 | 1.12 | 94 | 1008.4 |
| 20260507050212 | 7 | 255 | 0.0 | 0.0 | 0.00 | 0.00 | 0.00 | 84 | 1024.7 |
| 20260507050205 | 8 | 96 | 3.2 | 4.8 | 0.05 | 1.37 | 1.12 | 94 | 1008.3 |
| 20260507045705 | 9 | 96 | 1.6 | 8.0 | 0.05 | 1.37 | 1.12 | 93 | 1008.4 |
| 20260507045212 | 7 | 255 | 0.0 | 0.0 | 0.00 | 0.00 | 0.00 | 84 | 1024.7 |
| 20260507045205 | 9 | 96 | 1.6 | 3.2 | 0.05 | 1.37 | 1.12 | 93 | 1008.3 |
| 20260507044212 | 7 | 255 | 0.0 | 0.0 | 0.00 | 0.00 | 0.00 | 84 | 1024.7 |
| 20260507044205 | 9 | 96 | 0.0 | 1.6 | 0.05 | 1.37 | 1.12 | 93 | 1008.2 |
| 20260507043212 | 7 | 255 | 0.0 | 0.0 | 0.00 | 0.00 | 0.00 | 84 | 1024.7 |
| 20260507043205 | 9 | 96 | 0.0 | 1.6 | 0.05 | 1.37 | 1.12 | 93 | 1008.1 |
| 20260507042705 | 9 | 96 | 1.6 | 4.8 | 0.08 | 1.37 | 1.12 | 93 | 1008.0 |
| 20260507042212 | 7 | 255 | 0.0 | 0.0 | 0.00 | 0.00 | 0.00 | 84 | 1024.7 |
| 20260507042204 | 9 | 96 | 1.6 | 4.8 | 0.05 | 1.35 | 1.09 | 93 | 1008.1 |
| 20260507041704 | 9 | 96 | 1.6 | 3.2 | 0.08 | 1.35 | 1.09 | 94 | 1008.1 |
| 20260507041212 | 7 | 255 | 0.0 | 0.0 | 0.00 | 0.00 | 0.00 | 84 | 1024.7 |
| 20260507041204 | 9 | 96 | 0.0 | 0.0 | 0.08 | 1.35 | 1.09 | 94 | 1008.1 |
| 20260507040705 | 9 | 96 | 0.0 | 0.0 | 0.08 | 1.32 | 1.09 | 93 | 1008.1 |
| 20260507040212 | 7 | 255 | 0.0 | 0.0 | 0.00 | 0.00 | 0.00 | 84 | 1024.7 |
| 20260507040205 | 9 | 96 | 0.0 | 0.0 | 0.10 | 1.32 | 1.09 | 93 | 1008.0 |
| 20260507035705 | 9 | 96 | 0.0 | 0.0 | 0.15 | 1.30 | 1.07 | 93 | 1008.0 |
| 20260507035212 | 7 | 255 | 0.0 | 0.0 | 0.00 | 0.00 | 0.00 | 84 | 1024.7 |
| 20260507035204 | 9 | 96 | 0.0 | 0.0 | 0.20 | 1.30 | 1.07 | 93 | 1008.0 |
| 20260507034705 | 9 | 96 | 0.0 | 0.0 | 0.23 | 1.30 | 1.07 | 93 | 1007.9 |
| 20260507034212 | 7 | 255 | 0.0 | 0.0 | 0.00 | 0.00 | 0.00 | 84 | 1024.7 |
| 20260507034205 | 9 | 96 | 0.0 | 0.0 | 0.23 | 1.30 | 1.07 | 94 | 1007.9 |
| 20260507033211 | 7 | 255 | 0.0 | 0.0 | 0.00 | 0.00 | 0.00 | 84 | 1024.7 |
| 20260507033205 | 9 | 96 | 0.0 | 0.0 | 0.23 | 1.30 | 1.07 | 94 | 1007.8 |
| 20260507032211 | 7 | 255 | 0.0 | 0.0 | 0.00 | 0.00 | 0.00 | 84 | 1024.7 |
| 20260507032205 | 9 | 96 | 0.0 | 0.0 | 0.23 | 1.27 | 1.04 | 94 | 1007.8 |
| 20260507031705 | 9 | 96 | 0.0 | 0.0 | 0.23 | 1.27 | 1.02 | 94 | 1007.7 |
| 20260507031211 | 7 | 255 | 0.0 | 0.0 | 0.00 | 0.00 | 0.00 | 84 | 1024.7 |
| 20260507031205 | 9 | 96 | 0.0 | 0.0 | 0.23 | 1.27 | 1.02 | 93 | 1007.8 |
| 20260507030705 | 9 | 96 | 0.0 | 1.6 | 0.23 | 1.24 | 0.99 | 93 | 1007.7 |
| 20260507030211 | 7 | 255 | 0.0 | 0.0 | 0.00 | 0.00 | 0.00 | 84 | 1024.7 |
| 20260507030205 | 9 | 96 | 0.0 | 3.2 | 0.25 | 1.22 | 0.99 | 93 | 1007.6 |
| 20260507025704 | 9 | 96 | 0.0 | 1.6 | 0.23 | 1.17 | 0.91 | 93 | 1007.5 |
| 20260507024704 | 9 | 96 | 0.0 | 1.6 | 0.20 | 1.09 | 0.84 | 93 | 1007.3 |
| 20260507024211 | 7 | 255 | 0.0 | 0.0 | 0.00 | 0.00 | 0.00 | 84 | 1024.7 |
| 20260507024205 | 9 | 96 | 1.6 | 4.8 | 0.20 | 1.07 | 0.81 | 93 | 1007.4 |
| 20260507023704 | 9 | 103 | 0.0 | 3.2 | 0.23 | 1.07 | 0.81 | 93 | 1007.4 |
| 20260507023211 | 7 | 255 | 0.0 | 0.0 | 0.00 | 0.00 | 0.00 | 84 | 1024.7 |
| 20260507023205 | 9 | 103 | 0.0 | 4.8 | 0.23 | 1.07 | 0.81 | 93 | 1007.4 |
| 20260507022704 | 9 | 117 | 0.0 | 3.2 | 0.23 | 1.07 | 0.81 | 93 | 1007.4 |
| 20260507022211 | 7 | 255 | 0.0 | 0.0 | 0.00 | 0.00 | 0.00 | 84 | 1024.7 |
| 20260507022205 | 9 | 117 | 0.0 | 3.2 | 0.20 | 1.04 | 0.79 | 93 | 1007.3 |
| 20260507021211 | 7 | 255 | 0.0 | 0.0 | 0.00 | 0.00 | 0.00 | 84 | 1024.7 |
| 20260507021205 | 9 | 117 | 0.0 | 3.2 | 0.20 | 1.02 | 0.79 | 93 | 1007.2 |
| 20260507020705 | 9 | 117 | 0.0 | 0.0 | 0.20 | 0.99 | 0.76 | 93 | 1007.2 |
| 20260507020211 | 7 | 255 | 0.0 | 0.0 | 0.00 | 0.00 | 0.00 | 84 | 1024.7 |
| 20260507020204 | 9 | 117 | 0.0 | 1.6 | 0.20 | 0.97 | 0.71 | 93 | 1007.2 |
| 20260507015704 | 9 | 117 | 0.0 | 3.2 | 0.20 | 0.91 | 0.69 | 93 | 1007.3 |
| 20260507015211 | 7 | 255 | 0.0 | 0.0 | 0.00 | 0.00 | 0.00 | 84 | 1024.7 |
| 20260507015204 | 9 | 117 | 1.6 | 3.2 | 0.20 | 0.89 | 0.66 | 93 | 1007.3 |
| 20260507014704 | 9 | 117 | 0.0 | 3.2 | 0.20 | 0.89 | 0.64 | 93 | 1007.2 |
| 20260507014211 | 7 | 255 | 0.0 | 0.0 | 0.00 | 0.00 | 0.00 | 84 | 1024.7 |
| 20260507014204 | 9 | 113 | 1.6 | 8.0 | 0.20 | 0.86 | 0.61 | 93 | 1007.1 |
| 20260507013704 | 9 | 40 | 0.0 | 4.8 | 0.18 | 0.84 | 0.61 | 93 | 1007.2 |
| 20260507012705 | 9 | 69 | 1.6 | 4.8 | 0.23 | 0.84 | 0.61 | 93 | 1007.1 |
| 20260507011704 | 9 | 82 | 0.0 | 3.2 | 0.36 | 0.81 | 0.58 | 93 | 1007.1 |
| 20260507010705 | 9 | 18 | 4.8 | 12.9 | 0.51 | 0.79 | 0.56 | 93 | 1007.1 |
| 20260507010211 | 7 | 255 | 0.0 | 0.0 | 0.00 | 0.00 | 0.00 | 84 | 1024.7 |
| 20260507010205 | 9 | 7 | 3.2 | 8.0 | 0.51 | 0.76 | 0.51 | 93 | 1007.3 |
| 20260507005704 | 9 | 28 | 1.6 | 8.0 | 0.48 | 0.71 | 0.48 | 93 | 1007.3 |
| 20260507005211 | 7 | 255 | 0.0 | 0.0 | 0.00 | 0.00 | 0.00 | 84 | 1024.7 |
| 20260507005205 | 10 | 330 | 3.2 | 11.3 | 0.46 | 0.71 | 0.46 | 93 | 1007.2 |
| 20260507004211 | 7 | 255 | 0.0 | 0.0 | 0.00 | 0.00 | 0.00 | 84 | 1024.7 |
| 20260507004204 | 10 | 316 | 8.0 | 19.3 | 0.43 | 0.66 | 0.43 | 93 | 1007.4 |
| 20260507003704 | 10 | 287 | 11.3 | 19.3 | 0.43 | 0.66 | 0.43 | 93 | 1007.4 |
| 20260507003211 | 7 | 255 | 0.0 | 0.0 | 0.00 | 0.00 | 0.00 | 84 | 1024.7 |
| 20260507003205 | 10 | 263 | 8.0 | 12.9 | 0.41 | 0.64 | 0.41 | 93 | 1007.3 |
| 20260507002704 | 10 | 284 | 6.4 | 14.5 | 0.36 | 0.61 | 0.36 | 93 | 1007.2 |
| 20260507002211 | 7 | 255 | 0.0 | 0.0 | 0.00 | 0.00 | 0.00 | 84 | 1024.7 |
| 20260507002204 | 10 | 307 | 11.3 | 22.5 | 0.30 | 0.53 | 0.30 | 93 | 1007.1 |
| 20260507001704 | 10 | 308 | 9.7 | 19.3 | 0.23 | 0.46 | 0.23 | 93 | 1007.1 |
| 20260507001211 | 7 | 255 | 0.0 | 0.0 | 0.00 | 0.00 | 0.00 | 84 | 1024.7 |
| 20260507001204 | 10 | 309 | 9.7 | 12.9 | 0.10 | 0.33 | 0.10 | 93 | 1007.1 |
| 20260507000704 | 10 | 328 | 8.0 | 12.9 | 0.05 | 0.28 | 0.05 | 93 | 1007.1 |
| 20260507000212 | 7 | 255 | 0.0 | 0.0 | 0.00 | 0.00 | 0.00 | 84 | 1024.7 |
| 20260507000205 | 10 | 320 | 9.7 | 19.3 | 0.03 | 0.25 | 0.03 | 93 | 1007.0 |
| 20260506235704 | 10 | 303 | 8.0 | 11.3 | 0.00 | 0.23 | 0.00 | 93 | 1006.7 |
| 20260506235211 | 7 | 255 | 0.0 | 0.0 | 0.00 | 0.00 | 0.00 | 84 | 1024.7 |
| 20260506235204 | 10 | 331 | 4.8 | 9.7 | 0.00 | 0.23 | 0.00 | 93 | 1006.7 |
| 20260506234704 | 10 | 290 | 3.2 | 8.0 | 0.00 | 0.25 | 0.00 | 93 | 1006.6 |
| 20260506234211 | 7 | 255 | 0.0 | 0.0 | 0.00 | 0.00 | 0.00 | 84 | 1024.7 |
| 20260506234204 | 10 | 39 | 3.2 | 8.0 | 0.00 | 0.28 | 0.00 | 93 | 1006.6 |
| 20260506233704 | 11 | 39 | 3.2 | 8.0 | 0.00 | 0.33 | 0.00 | 93 | 1006.6 |
| 20260506233210 | 7 | 255 | 0.0 | 0.0 | 0.00 | 0.00 | 0.00 | 84 | 1024.7 |
| 20260506233205 | 11 | 39 | 0.0 | 4.8 | 0.00 | 0.36 | 0.00 | 93 | 1006.4 |
| 20260506232704 | 11 | 76 | 3.2 | 8.0 | 0.00 | 0.41 | 0.00 | 93 | 1006.4 |
| 20260506231704 | 11 | 77 | 1.6 | 4.8 | 0.00 | 0.48 | 0.00 | 93 | 1006.2 |
| 20260506230704 | 11 | 48 | 1.6 | 8.0 | 0.00 | 0.58 | 0.00 | 93 | 1006.2 |
| 20260506230210 | 7 | 255 | 0.0 | 0.0 | 0.00 | 0.00 | 0.00 | 84 | 1024.7 |
| 20260506230204 | 11 | 5 | 3.2 | 9.7 | 0.00 | 0.61 | 0.00 | 92 | 1006.1 |
| 20260506225704 | 11 | 7 | 4.8 | 12.9 | 0.00 | 0.64 | 0.00 | 93 | 1006.2 |
| 20260506225211 | 7 | 255 | 0.0 | 0.0 | 0.00 | 0.00 | 0.00 | 84 | 1024.7 |
| 20260506225204 | 11 | 23 | 3.2 | 11.3 | 0.00 | 0.69 | 0.00 | 93 | 1006.2 |
| 20260506224210 | 7 | 255 | 0.0 | 0.0 | 0.00 | 0.00 | 0.00 | 84 | 1024.7 |
| 20260506224204 | 11 | 43 | 4.8 | 14.5 | 0.00 | 0.74 | 0.00 | 92 | 1006.5 |
| 20260506223704 | 11 | 27 | 4.8 | 11.3 | 0.00 | 0.79 | 0.00 | 92 | 1006.4 |
| 20260506223210 | 7 | 255 | 0.0 | 0.0 | 0.00 | 0.00 | 0.00 | 84 | 1024.7 |
| 20260506223204 | 11 | 352 | 4.8 | 9.7 | 0.00 | 0.94 | 0.00 | 92 | 1006.4 |
| 20260506222704 | 11 | 0 | 3.2 | 9.7 | 0.00 | 1.09 | 0.00 | 92 | 1006.4 |
| 20260506222210 | 7 | 255 | 0.0 | 0.0 | 0.00 | 0.00 | 0.00 | 84 | 1024.7 |
| 20260506222204 | 11 | 8 | 3.2 | 9.7 | 0.00 | 1.27 | 0.00 | 92 | 1006.4 |
| 20260506221704 | 11 | 350 | 8.0 | 12.9 | 0.00 | 1.32 | 0.00 | 92 | 1006.3 |
| 20260506221210 | 7 | 255 | 0.0 | 0.0 | 0.00 | 0.00 | 0.00 | 84 | 1024.7 |
| 20260506221204 | 11 | 4 | 3.2 | 11.3 | 0.00 | 1.45 | 0.00 | 92 | 1006.3 |
| 20260506220704 | 12 | 23 | 3.2 | 9.7 | 0.00 | 1.45 | 0.00 | 92 | 1006.2 |
| 20260506220210 | 7 | 255 | 0.0 | 0.0 | 0.00 | 0.00 | 0.00 | 84 | 1024.7 |
| 20260506220205 | 12 | 51 | 4.8 | 9.7 | 0.00 | 1.45 | 0.00 | 92 | 1006.1 |
| 20260506215704 | 12 | 9 | 3.2 | 9.7 | 0.00 | 1.47 | 1.45 | 92 | 1006.2 |
| 20260506215210 | 7 | 255 | 0.0 | 0.0 | 0.00 | 0.00 | 0.00 | 84 | 1024.7 |
| 20260506215204 | 12 | 63 | 0.0 | 4.8 | 0.00 | 1.47 | 1.45 | 92 | 1006.0 |
| 20260506214704 | 12 | 63 | 1.6 | 4.8 | 0.00 | 1.47 | 1.45 | 92 | 1006.1 |
| 20260506214210 | 7 | 255 | 0.0 | 0.0 | 0.00 | 0.00 | 0.00 | 84 | 1024.7 |
| 20260506214204 | 12 | 49 | 1.6 | 8.0 | 0.03 | 1.47 | 1.45 | 92 | 1006.0 |
| 20260506213704 | 12 | 82 | 0.0 | 1.6 | 0.03 | 1.47 | 1.45 | 92 | 1006.0 |
| 20260506213210 | 7 | 255 | 0.0 | 0.0 | 0.00 | 0.00 | 0.00 | 84 | 1024.7 |
| 20260506213204 | 12 | 82 | 1.6 | 4.8 | 0.03 | 1.47 | 1.45 | 92 | 1006.1 |
| 20260506212210 | 7 | 255 | 0.0 | 0.0 | 0.00 | 0.00 | 0.00 | 84 | 1024.7 |
| 20260506212205 | 12 | 82 | 3.2 | 11.3 | 0.05 | 1.47 | 1.45 | 92 | 1006.1 |
| 20260506211704 | 12 | 81 | 1.6 | 4.8 | 0.05 | 1.47 | 1.45 | 92 | 1006.1 |
| 20260506211210 | 7 | 255 | 0.0 | 0.0 | 0.00 | 0.00 | 0.00 | 84 | 1024.7 |
| 20260506211205 | 12 | 52 | 3.2 | 8.0 | 0.05 | 1.47 | 1.45 | 92 | 1006.1 |
| 20260506210704 | 12 | 9 | 3.2 | 4.8 | 0.05 | 1.47 | 1.45 | 92 | 1006.0 |
| 20260506210210 | 7 | 255 | 0.0 | 0.0 | 0.00 | 0.00 | 0.00 | 84 | 1024.7 |
| 20260506210204 | 12 | 43 | 3.2 | 8.0 | 0.05 | 1.47 | 1.45 | 92 | 1006.1 |
| 20260506205704 | 12 | 348 | 3.2 | 8.0 | 0.05 | 1.47 | 1.45 | 92 | 1005.9 |
| 20260506205210 | 7 | 255 | 0.0 | 0.0 | 0.00 | 0.00 | 0.00 | 84 | 1024.7 |
| 20260506205204 | 12 | 55 | 3.2 | 9.7 | 0.05 | 1.47 | 1.45 | 92 | 1005.8 |
| 20260506204704 | 12 | 316 | 3.2 | 9.7 | 0.05 | 1.47 | 1.45 | 92 | 1005.7 |
| 20260506204210 | 7 | 255 | 0.0 | 0.0 | 0.00 | 0.00 | 0.00 | 84 | 1024.7 |
| 20260506204204 | 12 | 39 | 3.2 | 9.7 | 0.03 | 1.45 | 1.45 | 91 | 1005.8 |
| 20260506203704 | 12 | 25 | 4.8 | 11.3 | 0.03 | 1.45 | 1.45 | 91 | 1005.7 |
| 20260506202704 | 12 | 348 | 4.8 | 11.3 | 0.03 | 1.45 | 1.45 | 91 | 1005.8 |
| 20260506202210 | 7 | 255 | 0.0 | 0.0 | 0.00 | 0.00 | 0.00 | 84 | 1024.7 |
| 20260506202203 | 12 | 2 | 4.8 | 11.3 | 0.00 | 1.45 | 1.42 | 91 | 1005.8 |
| 20260506201704 | 13 | 8 | 4.8 | 11.3 | 0.00 | 1.45 | 1.42 | 91 | 1005.8 |
| 20260506201210 | 7 | 255 | 0.0 | 0.0 | 0.00 | 0.00 | 0.00 | 84 | 1024.7 |
| 20260506201204 | 13 | 8 | 4.8 | 9.7 | 0.00 | 1.45 | 1.42 | 91 | 1005.9 |
| 20260506200704 | 13 | 293 | 1.6 | 4.8 | 0.00 | 1.45 | 1.42 | 91 | 1005.8 |
| 20260506200210 | 7 | 255 | 0.0 | 0.0 | 0.00 | 0.00 | 0.00 | 84 | 1024.7 |
| 20260506200204 | 13 | 5 | 1.6 | 4.8 | 0.00 | 1.45 | 1.42 | 91 | 1005.7 |
| 20260506195704 | 13 | 311 | 3.2 | 8.0 | 0.00 | 1.45 | 1.42 | 91 | 1005.6 |
| 20260506195210 | 7 | 255 | 0.0 | 0.0 | 0.00 | 0.00 | 0.00 | 84 | 1024.7 |
| 20260506195204 | 13 | 354 | 1.6 | 8.0 | 0.00 | 1.45 | 1.42 | 91 | 1005.7 |
| 20260506194704 | 13 | 62 | 0.0 | 4.8 | 0.00 | 1.45 | 1.42 | 91 | 1005.7 |
| 20260506194210 | 7 | 255 | 0.0 | 0.0 | 0.00 | 0.00 | 0.00 | 84 | 1024.7 |
| 20260506194205 | 13 | 67 | 1.6 | 4.8 | 0.00 | 1.45 | 1.42 | 91 | 1005.6 |
| 20260506193704 | 13 | 105 | 0.0 | 0.0 | 0.00 | 1.45 | 1.42 | 91 | 1005.5 |
| 20260506193210 | 7 | 255 | 0.0 | 0.0 | 0.00 | 0.00 | 0.00 | 84 | 1024.7 |
| 20260506193204 | 13 | 105 | 0.0 | 0.0 | 0.00 | 1.45 | 1.42 | 91 | 1005.6 |
| 20260506192704 | 13 | 148 | 1.6 | 3.2 | 0.00 | 1.45 | 1.42 | 91 | 1005.5 |
| 20260506191705 | 13 | 83 | 0.0 | 1.6 | 0.00 | 1.45 | 1.42 | 90 | 1005.5 |
| 20260506191210 | 7 | 255 | 0.0 | 0.0 | 0.00 | 0.00 | 0.00 | 84 | 1024.7 |
| 20260506191204 | 13 | 83 | 0.0 | 0.0 | 0.00 | 1.45 | 1.42 | 91 | 1005.4 |
| 20260506190705 | 13 | 83 | 0.0 | 3.2 | 0.00 | 1.45 | 1.42 | 90 | 1005.3 |
| 20260506190210 | 7 | 255 | 0.0 | 0.0 | 0.00 | 0.00 | 0.00 | 84 | 1024.7 |
| 20260506190205 | 13 | 76 | 3.2 | 4.8 | 0.00 | 1.45 | 1.42 | 90 | 1005.4 |
| 20260506185704 | 13 | 101 | 0.0 | 1.6 | 0.00 | 1.45 | 1.42 | 90 | 1005.3 |
| 20260506185210 | 7 | 255 | 0.0 | 0.0 | 0.00 | 0.00 | 0.00 | 84 | 1024.7 |
| 20260506185204 | 14 | 101 | 0.0 | 3.2 | 0.00 | 1.45 | 1.42 | 90 | 1005.2 |
| 20260506184704 | 14 | 101 | 0.0 | 0.0 | 0.00 | 1.45 | 1.42 | 90 | 1005.2 |
| 20260506184210 | 7 | 255 | 0.0 | 0.0 | 0.00 | 0.00 | 0.00 | 84 | 1024.7 |
| 20260506184204 | 14 | 101 | 0.0 | 0.0 | 0.00 | 1.45 | 1.42 | 90 | 1005.0 |
| 20260506183704 | 14 | 95 | 1.6 | 3.2 | 0.00 | 1.45 | 1.42 | 89 | 1005.0 |
| 20260506183210 | 7 | 255 | 0.0 | 0.0 | 0.00 | 0.00 | 0.00 | 84 | 1024.7 |
| 20260506183204 | 14 | 138 | 0.0 | 1.6 | 0.00 | 1.45 | 1.42 | 89 | 1004.9 |
| 20260506181704 | 14 | 232 | 0.0 | 4.8 | 0.00 | 1.45 | 1.42 | 89 | 1004.8 |